BREEZE-KM DEB, 41719

Orbit data source: Space-Track

BREEZE-KM DEB, 41719 is space debris in LEO originally from a launch on Tue, 31 Mar 2015 UTC launched from the Plesetsk Missile And Space Complex (PKMTR). Debris objects in space refer to the collection of defunct objects orbiting the Earth. Examples of debris include non-operational satellites, rocket bodies, and fragments generated from explosions, collisions, or faulty payload assembly.

Loading next visibility...
Identifier
41719, 2015-020G
Orbit
LEO
Country
Flag of CISCIS
Related business
Manufacturer
Khrunichev
Mission
Spacecraft
Bus & Motor
Unknown
Mass
Unknown
Launch date (UTC)
2015-03-31 (11 years ago)
Launch vehicle
Unknown
Launch site
Plesetsk Missile And Space Complex (PKMTR)
Object type
Payload
Rocket body
Debris
Shape & HBR
Unknown shape, 0.1 m
Radar Cross Section
Small (<0.1 m²)

Expand to show TLE details & history
Last TLE update: 1 day ago

TLE from 1 day ago
0 BREEZE-KM DEB
1 41719U 15020G   25297.23761552  .00000052  00000-0  18097-3 0  9991
2 41719  82.4955  29.4289 0220845 319.8385  38.6569 12.75177769482383
Epoch: 2025-10-24T05:42Z
TLE epoch observation values (Epoch: 2025-10-24T05:42:09.980Z)
Latitude
0.00003°
Longitude
-88.99807°
Altitude
1,231.691 km
Speed
7.3 km/s
True Right ascension
01h 57m 42s
True Declination
0° 00' 00"
Sunlit
Object was in full shadow at epoch
Visualization orbit readout
Latitude
Unknown
Longitude
Unknown
Altitude
Unknown
Speed
Unknown
Apparent Right ascension
Unknown
Apparent Declination
Unknown
Sunlit
N/A
Visualization observer readout
Local Sidereal Time
01:10:09
Azimuth
Unknown
Elevation
Unknown
Doppler factor
Unknown
Orbital elements
Apogee altitude
1,529.077 km
Perigee altitude
1,187.37 km
Semi-major axis
7,736.36 km
Eccentricity
0.02208
Inclination
82.4955°
RAAN
29.4289°
Arg. of periapsis
319.8385°
True anomaly
40.2723°
Mean anomaly
38.6569°
Eccentric anomaly
39.4611°
Mean motion
3.18961 °/min
Orbital period
112.87 mins
BSTAR
0.00018097
Loading maneuver chart data...
Computing Atmospheric mass density...
Loading historical data...
Loading historical data...
Loading historical data...
Loading historical data...
Loading historical data...
Loading historical data...
Loading historical data...

Documentation

Showing up to 5 results
|